Regional Weather Roundup
Issued by NWS

Home | Current Version | Previous Version | Graphics & Text | Print | Product List | Glossary On
Versions: 1 2 3 4 5 6 7 8 9 10 11 12 13 14 15 16 17 18 19 20 21 22 23 24 25 26 27 28 29 30 31 32 33 34 35 36 37 38 39 40 41 42 43 44 45 46 47 48 49 50
243
ASUS45 KBOU 171210
RWRCO

WEATHER ROUNDUP FOR COLORADO
NATIONAL WEATHER SERVICE PUEBLO CO
500 AM MST SAT FEB 17 2018

NOTE: "FAIR" INDICATES FEW OR NO CLOUDS BELOW 12000 FEET WITH NO
SIGNIFICANT WEATHER AND/OR OBSTRUCTIONS TO VISIBILITY.

COZ001>005-013-030-031-171300-
...NORTHWEST COLORADO...

CITY           SKY/WX    TMP DP  RH WIND       PRES   REMARKS
CRAIG          PTCLDY    16   7  67 CALM      30.15R
HAYDEN         MOCLDY    22  11  62 SW3       30.15R
MEEKER         CLEAR     20  11  68 E6        30.15R WCI  12
RABBIT EARS PA NOT AVBL
STEAMBOAT SPGS CLOUDY    24  11  58 SW6       30.12R WCI  16
WALDEN         CLOUDY    19  10  68 W25       30.04R WCI   2
$$

COZ006>008-011-171300-
...WEST CENTRAL VALLEYS...

CITY           SKY/WX    TMP DP  RH WIND       PRES   REMARKS
GRAND JUNCTION CLEAR     25  20  81 SE5       30.19R WCI  19
MONTROSE       CLEAR     19  16  88 S7        30.21R WCI  10
EAGLE          CLOUDY    28  14  55 SW5       30.16R WCI  23
RIFLE          CLEAR     21  14  74 SW5       30.19R WCI  15
DELTA          NOT AVBL
NUCLA          FAIR      25  16  68 SE3       30.24R
$$

COZ017>023-064>068-171300-
...SOUTHWEST COLORADO...

CITY           SKY/WX    TMP DP  RH WIND       PRES   REMARKS
DURANGO        CLEAR     19  17  92 CALM      30.19R
CORTEZ         PTCLDY    17  14  88 NE5       30.21R WCI  10
PAGOSA SPRINGS FAIR      14  13  94 CALM      30.19S
TELLURIDE      PTCLDY    18   7  61 SE7       30.21R WCI   8
WOLF CREEK PAS   N/A     10   9  92 S8        30.19S WCI  -1
$$

COZ009-010-012-014-032>034-037-058>063-171300-
...CENTRAL COLORADO...

CITY           SKY/WX    TMP DP  RH WIND       PRES   REMARKS
ASPEN          CLEAR      8   4  83 S6        30.13R WCI  -2
BUENA VISTA    FAIR      28   6  38 W15G22    30.05S WCI  17
COPPER MTN     CLEAR     12   5  73 W21G26    29.99F WCI  -6
BERTHOUD PASS  FAIR       3  -8  60 W54G72    29.81S HAZE    WCI -27
COTTONWOOD PAS CLEAR     28  10  47 W21G38    30.02R WCI  15
GUNNISON       CLEAR     17  12  80 N6        30.16R WCI   9
KREMMLING      CLOUDY    30  14  51 W6        30.10R WCI  24
LEADVILLE      CLEAR     15   5  64 N13G25    30.03R WCI   1
MONARCH PASS     N/A     10   7  85 W45       30.14F WCI -15
SALIDA         FAIR      34   8  34 W25G35    30.11F WCI  21
SUNLIGHT       CLEAR     10   5  79 SW20G30     N/A  WCI  -8
WILKERSON PASS CLEAR     14   1  57 W14G22    29.96R WCI  -1
$$

COZ069>075-171300-
...SAN LUIS VALLEY/SANGRE DE CRISTO MOUNTAINS...

CITY           SKY/WX    TMP DP  RH WIND       PRES   REMARKS
ALAMOSA        PTCLDY    10   6  84 SW6       30.13R WCI   0
DEL NORTE      FAIR      20  11  66 CALM      30.13S
LA VETA PASS   CLEAR     21   9  58 S44G62    30.07S WCI   0
SAGUACHE       CLEAR     16   7  67 NE5       30.13R WCI   9
$$

COZ035-036-038>040-171300-
...NORTHERN COLORADO FRONT RANGE...

CITY           SKY/WX    TMP DP  RH WIND       PRES   REMARKS
DENVER INTL AP CLEAR     28  11  48 NE7       29.94R WCI  21
DMNS CITY PARK NOT AVBL
AURORA         CLEAR     28  13  52 N3        29.96R
FRONT RANGE AP FAIR      30  15  53 N7        29.96R WCI  23
ERIE MUNI ARPT FAIR      31  12  45 SE3       30.00R
BOULDER MUN AP FAIR      36   9  32 NE3       29.92R
CENTENNIAL     PTCLDY    29  14  53 SE9G22    29.95R WCI  20
BROOMFIELD     CLEAR     37   9  30 NW24G31   29.93S
LOVELAND       CLEAR     35   9  33 N18       29.94R WCI  24
LONGMONT       FAIR      41   5  22 W13G22    29.95R
$$

COZ041-046-047-076>085-087-088-171300-
...PIKES PEAK/PALMER DIVIDE AND SOUTHERN FOOTHILLS...

CITY           SKY/WX    TMP DP  RH WIND       PRES   REMARKS
COLO. SPRINGS  CLEAR     41   3  20 N17G43    29.96R
A. F. ACADEMY  CLEAR     34   2  26 N13G22    29.93R WCI  25
SCHRIEVER AFB  NOT AVBL
CHEYENNE MTN   NOT AVBL
ELLICOTT         N/A    N/A N/A N/A NE5       29.95R
FALCON         FAIR      25   6  44 MISG      29.97R
FORT CARSON    CLEAR     38   7  27 NE9       29.93R
LIMON          CLEAR     18  13  80 SW5       29.96R WCI  11
MONUMENT HILL  CLEAR     23  10  58 CALM      29.97R
CANON CITY     CLEAR     43  12  28 W21G30    29.91S
WALSENBURG     FAIR      43  12  28 W30G41    29.96R
TRINIDAD       CLEAR     26  14  60 S12       29.96R WCI  16
$$

COZ042>045-048>051-090-091-171300-
...NORTHEAST COLORADO...

CITY           SKY/WX    TMP DP  RH WIND       PRES   REMARKS
GREELEY ARPT   CLEAR     34  12  40 N16       29.97R WCI  24
AKRON          CLEAR     34  13  41 NW24G37   29.94R WCI  21
BURLINGTON     CLEAR     30  18  60 NW15      29.96R WCI  19
WRAY           FAIR      30  21  69 NW10      29.96R WCI  21
YUMA           NOT AVBL
STERLING       FAIR      28  18  64 N6        29.95R WCI  22
HOLYOKE        FAIR      34  19  55 NW13G20   29.95R WCI  25
FORT MORGAN    FAIR      34   9  34 W24G30    29.98R WCI  22
$$

COZ086-089-092>099-171300-
...SOUTHEAST COLORADO...

CITY           SKY/WX    TMP DP  RH WIND       PRES   REMARKS
PUEBLO         CLEAR     45  14  28 W21G31    29.93R
LA JUNTA       CLEAR     32  18  56 S7        29.98R WCI  26
LAMAR          CLEAR     29  14  53 N5        29.96R WCI  24
SPRINGFIELD      N/A     33  17  51 N17       29.95R WCI  22
$$





USA.gov is the U.S. government's official web portal to all federal, state and local government web resources and services.